Regional Weather Roundup
Issued by NWS

Home | Current Version | Previous Version | Text Only | Print | Product List | Glossary On
Versions: 1 2 3 4 5 6 7 8 9 10 11 12 13 14 15 16 17 18 19 20 21 22 23 24 25 26 27 28 29 30 31 32 33 34 35 36 37 38 39 40 41 42 43 44 45 46 47 48 49 50
000
ASUS43 KOAX 201010
RWRNE

WEATHER ROUNDUP FOR NEBRASKA
NATIONAL WEATHER SERVICE OMAHA NE
400 AM CST SAT DEC 20 2014

NOTES: SATELLITE DATA IS BEING USED TO AUGMENT CLOUD COVER ABOVE
       12000 FEET.
       "FAIR" INDICATES FEW OR NO CLOUDS BELOW 12,000 FEET WITH NO
       SIGNIFICANT WEATHER AND/OR OBSTRUCTIONS TO VISIBILITY.

  * THESE STATIONS DO NOT REPORT WEATHER SUCH AS RAIN...SNOW OR FOG.

NEZ001>004-019>022-054>056-201100-
NEBRASKA PANHANDLE

CITY           SKY/WX    TMP DP  RH WIND       PRES   REMARKS
SCOTTSBLUFF    PTCLDY    15  11  83 CALM      29.97S
ALLIANCE       PTCLDY     9   6  88 CALM      29.96S
CHADRON        PTCLDY    13  10  88 W6        29.95S WCI   4
KIMBALL        PTCLDY    21  16  81 CALM      29.97S
SIDNEY         CLEAR     18  13  80 W9        29.99S WCI   7
$$

NEZ057>060-069>072-079>082-201100-
SOUTHWEST NEBRASKA

CITY           SKY/WX    TMP DP  RH WIND       PRES   REMARKS
NORTH PLATTE   CLEAR     17  14  88 NW5       30.03R FOG     WCI  10
IMPERIAL       PTCLDY    22  16  78 CALM      30.02S
LEXINGTON      CLEAR     23  21  92 W9        30.03S FOG     WCI  13
MCCOOK         CLEAR     24  22  91 W5        30.04S WCI  18
OGALLALA       CLEAR     15  13  92 W6        30.01F WCI   6
$$

NEZ005>010-023>029-035>040-094-201100-
NORTH CENTRAL NEBRASKA

CITY           SKY/WX    TMP DP  RH WIND       PRES   REMARKS
VALENTINE      CLEAR     14  11  87 SW5       29.97F WCI   6
AINSWORTH      CLEAR     23  18  83 SW3       29.97F
BROKEN BOW     CLEAR     19  16  88 CALM      30.00F
O`NEILL        FOG      N/A N/A N/A CALM      30.02S VSB 1/4
THEDFORD       CLEAR     20  18  88 CALM      29.99F
$$

NEZ041-046>049-061>064-073>077-083>087-201100-
SOUTH CENTRAL NEBRASKA

CITY           SKY/WX    TMP DP  RH WIND       PRES   REMARKS
GRAND ISLAND   CLOUDY    30  30 100 CALM      30.05S FOG
AURORA         CLOUDY    32  32 100 CALM      30.04F FOG
HASTINGS       FOG       27  25  92 NE3       30.03S VSB 1/4
HEBRON         FOG       31  30  95 SW5       30.08R VSB 1/2 WCI  27
HOLDREGE       CLEAR     24  22  92 W6        30.02S WCI  17
KEARNEY *      CLEAR     19  16  86 CALM      30.03F
YORK           CLOUDY    32  32 100 CALM      30.06S FOG
$$

NEZ011>018-030>034-042>045-201100-
NORTHEAST NEBRASKA

CITY           SKY/WX    TMP DP  RH WIND       PRES   REMARKS
NORFOLK        CLOUDY    33  31  92 S6        30.05S WCI  28
ALBION         CLOUDY    32  30  93 S5        30.04S FOG     WCI  27
BLAIR          CLOUDY    32  31  94 S8        30.09F FOG     WCI  25
COLUMBUS *     CLOUDY    32  28  86 S5        30.08S WCI  27
FREMONT        CLOUDY    32  32  99 SE5       30.10S FOG     WCI  28
TEKAMAH        CLOUDY    32  31  96 SE10      30.11F FOG     WCI  24
WAYNE          CLOUDY    33  32  97 S6        30.07S FOG     WCI  27
$$

NEZ050>053-065>068-078-088>093-201100-
SOUTHEAST NEBRASKA

CITY           SKY/WX    TMP DP  RH WIND       PRES   REMARKS
LINCOLN        CLOUDY    33  31  92 SE7       30.10F FOG     WCI  27
OMAHA EPPLEY   FRZ DRZL  31  30  96 SE10      30.13F FOG     WCI  22
BEATRICE       CLOUDY    32  31  96 S7        30.08S FOG     WCI  26
FALLS CITY     CLOUDY    32  29  88 SE13      30.13F WCI  22
NEBRASKA CITY  CLOUDY    32  32 100 S9        30.12S FOG     WCI  24
PLATTSMOUTH    CLOUDY    31  29  94 SE10      30.11F FOG     WCI  22
$$

NEZ044-045-051>053-067-201100-
OMAHA AREA

CITY           SKY/WX    TMP DP  RH WIND       PRES   REMARKS
OMAHA EPPLEY   FRZ DRZL  31  30  96 SE10      30.13F FOG     WCI  22
BLAIR          CLOUDY    32  31  94 S8        30.09F FOG     WCI  25
FREMONT        CLOUDY    32  32  99 SE5       30.10S FOG     WCI  28
MILLARD        CLOUDY    32  31  95 SE6       30.12S FOG     WCI  26
OFFUTT AFB     CLOUDY    31  30  96 SE6       30.12S FOG     WCI  25
PLATTSMOUTH    CLOUDY    31  29  94 SE10      30.11F FOG     WCI  22
WAHOO          CLOUDY    32  30  93 SE8       30.09F FOG     WCI  25
$$



USA.gov is the U.S. government's official web portal to all federal, state and local government web resources and services.